When you browse on this site, cookies collect data to enhance your experience and personalize the content and advertising you see.
Visit our Privacy Policy to learn more. By continuing to use the site, you agree to this use of cookies and data.
  • In Netherlands
  • List of Countries
  • For 7 days
  • Water Temperature
  • Satellite Maps
  • Weather Map
  • Weather Widgets
  • user-avatar
    Login

    Hourly Weather Rogoźno

    Today, 19 June, Wednesday

    Time Temperature Precipitation Wind Pressure Humidity
    00:00 +18°C° 0 mm 3 mps 756 mmHg 81%
    01:00 +18°C° 0 mm 3 mps 755 mmHg 83%
    02:00 +17°C° 0 mm 3 mps 755 mmHg 85%
    03:00 +17°C° 0 mm 3 mps 754 mmHg 87%
    04:00 +17°C° 0 mm 3 mps 754 mmHg 89%
    05:00 +19°C° 0 mm 3 mps 754 mmHg 85%
    06:00 +20°C° 0 mm 3 mps 754 mmHg 82%
    07:00 +22°C° 0 mm 4 mps 754 mmHg 78%
    08:00 +23°C° 0.1 mm 4 mps 754 mmHg 72%
    09:00 +26°C° 0.1 mm 4 mps 753 mmHg 67%
    10:00 +27°C° 0.1 mm 4 mps 753 mmHg 61%
    11:00 +28°C° 0 mm 3 mps 753 mmHg 57%
    12:00 +29°C° 0 mm 3 mps 752 mmHg 53%
    13:00 +29°C° 0 mm 3 mps 752 mmHg 48%
    14:00 +29°C° 0 mm 2 mps 751 mmHg 50%
    15:00 +29°C° 0 mm 2 mps 751 mmHg 52%
    16:00 +29°C° 0 mm 2 mps 751 mmHg 54%
    17:00 +28°C° 0 mm 1 mps 750 mmHg 58%
    18:00 +27°C° 0 mm 1 mps 750 mmHg 63%
    19:00 +27°C° 0 mm 1 mps 750 mmHg 67%
    20:00 +25°C° 0.2 mm 1 mps 750 mmHg 70%
    21:00 +24°C° 0.2 mm 1 mps 750 mmHg 73%
    22:00 +22°C° 0.2 mm 1 mps 750 mmHg 77%
    23:00 +21°C° 0.2 mm 2 mps 750 mmHg 78%

    Tomorrow, 20 June, Thursday

    Time Temperature Precipitation Wind Pressure Humidity
    00:00 +21°C° 0.2 mm 2 mps 750 mmHg 80%
    01:00 +20°C° 0.2 mm 2 mps 750 mmHg 81%
    02:00 +20°C° 0.1 mm 2 mps 750 mmHg 82%
    03:00 +20°C° 0.1 mm 2 mps 750 mmHg 83%
    04:00 +19°C° 0.1 mm 2 mps 750 mmHg 85%
    05:00 +21°C° 0 mm 2 mps 750 mmHg 82%
    06:00 +23°C° 0 mm 2 mps 750 mmHg 79%
    07:00 +25°C° 0 mm 3 mps 750 mmHg 76%
    08:00 +26°C° 0 mm 3 mps 750 mmHg 70%
    09:00 +27°C° 0 mm 3 mps 750 mmHg 65%
    10:00 +29°C° 0 mm 4 mps 750 mmHg 59%
    11:00 +30°C° 0 mm 4 mps 750 mmHg 56%
    12:00 +30°C° 0 mm 4 mps 750 mmHg 52%
    13:00 +31°C° 0 mm 3 mps 750 mmHg 49%
    14:00 +31°C° 0 mm 3 mps 750 mmHg 50%
    15:00 +31°C° 0 mm 3 mps 750 mmHg 51%
    16:00 +30°C° 0 mm 2 mps 750 mmHg 51%
    17:00 +28°C° 0.5 mm 2 mps 750 mmHg 60%
    18:00 +27°C° 0.5 mm 2 mps 751 mmHg 68%
    19:00 +25°C° 0.5 mm 1 mps 751 mmHg 76%
    20:00 +24°C° 1.4 mm 1 mps 751 mmHg 80%
    21:00 +23°C° 1.4 mm 2 mps 752 mmHg 84%
    22:00 +21°C° 1.4 mm 2 mps 752 mmHg 88%
    23:00 +22°C° 0.2 mm 1 mps 752 mmHg 88%

    Day after tomorrow, 21 June, Friday

    Time Temperature Precipitation Wind Pressure Humidity
    00:00 +22°C° 0.2 mm 1 mps 753 mmHg 89%
    01:00 +21°C° 0.2 mm 1 mps 753 mmHg 90%
    02:00 +21°C° 0.1 mm 1 mps 753 mmHg 91%
    03:00 +21°C° 0.1 mm 1 mps 753 mmHg 92%
    04:00 +20°C° 0.1 mm 1 mps 753 mmHg 93%
    05:00 +20°C° 0.3 mm 2 mps 754 mmHg 91%
    06:00 +20°C° 0.3 mm 2 mps 754 mmHg 88%
    07:00 +21°C° 0.3 mm 2 mps 754 mmHg 85%
    08:00 +23°C° 0.6 mm 2 mps 755 mmHg 81%
    09:00 +23°C° 0.6 mm 2 mps 755 mmHg 77%
    10:00 +24°C° 0.6 mm 3 mps 755 mmHg 73%
    11:00 +25°C° 0.7 mm 3 mps 755 mmHg 70%
    12:00 +25°C° 0.7 mm 3 mps 755 mmHg 68%
    13:00 +26°C° 0.7 mm 3 mps 755 mmHg 65%
    14:00 +25°C° 0.5 mm 3 mps 755 mmHg 66%
    15:00 +25°C° 0.5 mm 3 mps 755 mmHg 67%
    16:00 +25°C° 0.5 mm 4 mps 756 mmHg 68%
    17:00 +24°C° 0.1 mm 3 mps 756 mmHg 71%
    18:00 +24°C° 0.1 mm 3 mps 756 mmHg 74%
    19:00 +23°C° 0.1 mm 2 mps 756 mmHg 77%
    20:00 +20°C° 0 mm 3 mps 757 mmHg 79%
    21:00 +18°C° 0 mm 3 mps 757 mmHg 81%
    22:00 +17°C° 0 mm 3 mps 758 mmHg 83%
    23:00 +16°C° 0 mm 3 mps 758 mmHg 83%

    22 June, Saturday

    Time Temperature Precipitation Wind Pressure Humidity
    00:00 +14°C° 0 mm 3 mps 758 mmHg 83%
    01:00 +15°C° 0 mm 2 mps 758 mmHg 83%
    02:00 +14°C° 0 mm 2 mps 759 mmHg 84%
    03:00 +13°C° 0 mm 2 mps 759 mmHg 85%
    04:00 +13°C° 0 mm 2 mps 759 mmHg 86%
    05:00 +13°C° 0 mm 3 mps 759 mmHg 82%
    06:00 +16°C° 0 mm 3 mps 760 mmHg 79%
    07:00 +17°C° 0 mm 3 mps 760 mmHg 75%
    08:00 +19°C° 0 mm 3 mps 760 mmHg 69%
    09:00 +20°C° 0 mm 3 mps 760 mmHg 64%
    10:00 +21°C° 0 mm 3 mps 761 mmHg 58%
    11:00 +22°C° 0 mm 3 mps 760 mmHg 57%
    12:00 +24°C° 0 mm 3 mps 760 mmHg 55%
    13:00 +24°C° 0 mm 3 mps 760 mmHg 54%
    14:00 +24°C° 0 mm 3 mps 760 mmHg 54%
    15:00 +24°C° 0 mm 3 mps 760 mmHg 55%
    16:00 +24°C° 0 mm 3 mps 760 mmHg 56%
    17:00 +22°C° 0 mm 3 mps 760 mmHg 61%
    18:00 +21°C° 0 mm 3 mps 760 mmHg 67%
    19:00 +21°C° 0 mm 3 mps 760 mmHg 72%
    20:00 +19°C° 0 mm 3 mps 760 mmHg 75%
    21:00 +17°C° 0 mm 4 mps 760 mmHg 77%
    22:00 +15°C° 0 mm 4 mps 761 mmHg 79%
    23:00 +14°C° 0 mm 4 mps 761 mmHg 78%

    23 June, Sunday

    Time Temperature Precipitation Wind Pressure Humidity
    00:00 +13°C° 0 mm 4 mps 761 mmHg 76%
    01:00 +13°C° 0 mm 4 mps 760 mmHg 75%
    02:00 +12°C° 0 mm 4 mps 760 mmHg 75%
    03:00 +12°C° 0 mm 3 mps 761 mmHg 75%
    04:00 +12°C° 0 mm 3 mps 761 mmHg 75%
    05:00 +12°C° 0 mm 3 mps 761 mmHg 74%
    06:00 +13°C° 0 mm 3 mps 761 mmHg 72%
    07:00 +14°C° 0 mm 3 mps 761 mmHg 71%
    08:00 +17°C° 0 mm 4 mps 761 mmHg 64%
    09:00 +18°C° 0 mm 4 mps 761 mmHg 58%
    10:00 +20°C° 0 mm 4 mps 762 mmHg 52%
    11:00 +20°C° 0 mm 4 mps 761 mmHg 50%
    12:00 +21°C° 0 mm 4 mps 761 mmHg 47%
    13:00 +22°C° 0 mm 4 mps 761 mmHg 45%
    14:00 +22°C° 0 mm 3 mps 761 mmHg 45%
    15:00 +22°C° 0 mm 3 mps 761 mmHg 46%
    16:00 +24°C° 0 mm 3 mps 761 mmHg 47%
    17:00 +22°C° 0 mm 3 mps 761 mmHg 53%
    18:00 +21°C° 0 mm 3 mps 761 mmHg 60%
    19:00 +20°C° 0 mm 2 mps 761 mmHg 66%
    20:00 +18°C° 0 mm 3 mps 762 mmHg 69%
    21:00 +16°C° 0 mm 3 mps 762 mmHg 73%
    22:00 +13°C° 0 mm 3 mps 762 mmHg 77%
    23:00 +12°C° 0 mm 3 mps 763 mmHg 79%

    24 June, Monday

    Time Temperature Precipitation Wind Pressure Humidity
    00:00 +11°C° 0 mm 3 mps 763 mmHg 81%
    01:00 +11°C° 0 mm 3 mps 763 mmHg 83%
    02:00 +10°C° 0 mm 3 mps 763 mmHg 85%
    03:00 +10°C° 0 mm 2 mps 763 mmHg 87%
    04:00 +10°C° 0 mm 2 mps 763 mmHg 89%
    05:00 +13°C° 0 mm 2 mps 763 mmHg 83%
    06:00 +14°C° 0 mm 3 mps 763 mmHg 78%
    07:00 +16°C° 0 mm 3 mps 764 mmHg 73%
    08:00 +18°C° 0 mm 3 mps 764 mmHg 67%
    09:00 +20°C° 0 mm 3 mps 764 mmHg 61%
    10:00 +21°C° 0 mm 3 mps 764 mmHg 55%
    11:00 +22°C° 0 mm 3 mps 763 mmHg 51%
    12:00 +24°C° 0 mm 3 mps 763 mmHg 47%
    13:00 +25°C° 0 mm 2 mps 763 mmHg 43%
    14:00 +25°C° 0 mm 2 mps 763 mmHg 42%
    15:00 +25°C° 0 mm 2 mps 763 mmHg 42%
    16:00 +26°C° 0 mm 2 mps 762 mmHg 42%
    17:00 +25°C° 0 mm 2 mps 763 mmHg 49%
    18:00 +23°C° 0 mm 2 mps 763 mmHg 55%
    19:00 +21°C° 0 mm 2 mps 763 mmHg 62%
    20:00 +20°C° 0 mm 2 mps 763 mmHg 67%
    21:00 +18°C° 0 mm 2 mps 763 mmHg 73%
    22:00 +17°C° 0 mm 2 mps 764 mmHg 78%
    23:00 +16°C° 0 mm 2 mps 764 mmHg 83%
    Show more